TimeEST,TemperatureF,Dew PointF,Humidity,Sea Level PressureIn,VisibilityMPH,Wind Direction,Wind SpeedMPH,Gust SpeedMPH,PrecipitationIn,Events,Conditions,WindDirDegrees,DateUTC
12:53 AM,60.1,55.0,83,29.88,10.0,SE,8.1,-,N/A,,Overcast,140,2013-01-13 05:53:00
1:53 AM,60.1,55.0,83,29.86,10.0,SE,6.9,-,N/A,,Overcast,130,2013-01-13 06:53:00
2:53 AM,62.1,55.0,78,29.85,10.0,SE,6.9,18.4,N/A,,Overcast,140,2013-01-13 07:53:00
3:53 AM,64.0,55.9,75,29.82,10.0,SSE,10.4,18.4,N/A,,Scattered Clouds,150,2013-01-13 08:53:00
4:53 AM,66.0,55.0,68,29.82,10.0,South,15.0,24.2,N/A,,Partly Cloudy,180,2013-01-13 09:53:00
5:53 AM,66.0,55.0,68,29.81,10.0,South,12.7,21.9,N/A,,Partly Cloudy,180,2013-01-13 10:53:00
6:53 AM,66.0,55.0,68,29.84,10.0,SSW,8.1,24.2,0.01,,Overcast,210,2013-01-13 11:53:00
7:53 AM,66.0,55.0,68,29.88,10.0,SW,11.5,19.6,N/A,,Overcast,230,2013-01-13 12:53:00
8:23 AM,66.2,53.6,64,29.90,10.0,SW,9.2,21.9,N/A,,Mostly Cloudy,220,2013-01-13 13:23:00
8:53 AM,64.9,54.0,68,29.91,10.0,SSW,10.4,16.1,N/A,,Scattered Clouds,210,2013-01-13 13:53:00
9:53 AM,64.0,54.0,70,29.92,10.0,SW,6.9,-,0.00,,Overcast,220,2013-01-13 14:53:00
10:53 AM,64.0,54.0,70,29.90,10.0,SSW,9.2,19.6,N/A,,Overcast,200,2013-01-13 15:53:00
11:53 AM,66.0,54.0,65,29.89,10.0,SW,9.2,23.0,N/A,,Scattered Clouds,220,2013-01-13 16:53:00
12:53 PM,66.0,53.1,63,29.84,10.0,South,9.2,-,N/A,,Scattered Clouds,180,2013-01-13 17:53:00
1:53 PM,66.0,53.1,63,29.83,10.0,SSE,8.1,16.1,N/A,,Mostly Cloudy,160,2013-01-13 18:53:00
2:53 PM,64.9,53.1,65,29.86,10.0,South,9.2,-,N/A,,Scattered Clouds,190,2013-01-13 19:53:00
3:53 PM,64.9,53.1,65,29.87,10.0,South,5.8,-,N/A,,Partly Cloudy,180,2013-01-13 20:53:00
4:53 PM,64.9,53.1,65,29.86,10.0,South,5.8,-,N/A,,Overcast,180,2013-01-13 21:53:00
5:53 PM,62.1,54.0,75,29.90,10.0,SSW,6.9,-,0.00,Rain,Light Rain,200,2013-01-13 22:53:00
6:53 PM,60.1,54.0,80,29.91,10.0,Variable,5.8,-,0.02,Rain,Light Rain,0,2013-01-13 23:53:00
7:53 PM,57.9,54.0,87,29.86,10.0,SSE,4.6,-,0.03,Rain,Light Rain,160,2013-01-14 00:53:00
8:53 PM,59.0,54.0,83,29.86,9.0,South,5.8,-,0.03,Rain,Light Rain,190,2013-01-14 01:53:00
9:53 PM,57.9,54.0,87,29.81,10.0,SSE,6.9,-,0.04,,Mostly Cloudy,160,2013-01-14 02:53:00
10:53 PM,54.0,51.1,90,29.88,5.0,NW,25.3,32.2,0.02,Rain,Light Rain,310,2013-01-14 03:53:00
11:00 PM,48.2,44.6,87,29.92,3.0,WNW,16.1,32.2,0.00,Rain,Light Rain,300,2013-01-14 04:00:00
11:02 PM,48.2,44.6,87,29.92,3.0,NW,11.5,32.2,0.00,Rain,Light Rain,310,2013-01-14 04:02:00
11:33 PM,44.6,42.8,93,29.97,3.0,NW,11.5,24.2,0.02,Rain,Light Rain,310,2013-01-14 04:33:00
11:53 PM,44.1,41.0,89,30.01,3.0,NW,15.0,23.0,0.03,Rain,Light Rain,320,2013-01-14 04:53:00